Year,Month,Day,Hour,Minute,Value (Times are PST for windgust in km/hr)
2016,11,04,00,00,3.20
2016,11,04,00,01,1.60
2016,11,04,00,02,1.60
2016,11,04,00,03,4.80
2016,11,04,00,04,3.20
2016,11,04,00,05,8.10
2016,11,04,00,06,8.10
2016,11,04,00,07,3.20
2016,11,04,00,08,1.60
2016,11,04,00,09,1.60
2016,11,04,00,10,4.80
2016,11,04,00,11,4.80
2016,11,04,00,12,3.20
2016,11,04,00,13,8.10
2016,11,04,00,14,8.10
2016,11,04,00,15,3.20
2016,11,04,00,16,4.80
2016,11,04,00,17,8.10
2016,11,04,00,18,8.10
2016,11,04,00,19,1.60
2016,11,04,00,20,1.60
2016,11,04,00,21,3.20
2016,11,04,00,22,1.60
2016,11,04,00,23,8.10
2016,11,04,00,24,4.80
2016,11,04,00,25,3.20
2016,11,04,00,26,3.20
2016,11,04,00,27,1.60
2016,11,04,00,28,3.20
2016,11,04,00,29,1.60
2016,11,04,00,30,1.60
2016,11,04,00,31,6.40
2016,11,04,00,32,3.20
2016,11,04,00,33,3.20
2016,11,04,00,34,4.80
2016,11,04,00,35,6.40
2016,11,04,00,36,8.10
2016,11,04,00,37,3.20
2016,11,04,00,38,3.20
2016,11,04,00,39,3.20
2016,11,04,00,40,16.10
2016,11,04,00,41,12.90
2016,11,04,00,42,11.30
2016,11,04,00,43,4.80
2016,11,04,00,44,3.20
2016,11,04,00,45,4.80
2016,11,04,00,46,4.80
2016,11,04,00,47,1.60
2016,11,04,00,48,4.80
2016,11,04,00,49,1.60
2016,11,04,00,50,3.20
2016,11,04,00,51,1.60
2016,11,04,00,52,6.40
2016,11,04,00,53,6.40
2016,11,04,00,54,8.10
2016,11,04,00,55,9.60
2016,11,04,00,56,3.20
2016,11,04,00,57,1.60
2016,11,04,00,59,1.60
2016,11,04,01,00,1.60
2016,11,04,01,01,6.40
2016,11,04,01,02,8.10
2016,11,04,01,03,8.10
2016,11,04,01,04,1.60
2016,11,04,01,05,1.60
2016,11,04,01,09,1.60
2016,11,04,01,11,1.60
2016,11,04,01,12,1.60
2016,11,04,01,13,3.20
2016,11,04,01,14,12.90
2016,11,04,01,15,8.10
2016,11,04,01,16,6.40
2016,11,04,01,17,3.20
2016,11,04,01,18,6.40
2016,11,04,01,19,6.40
2016,11,04,01,20,16.10
2016,11,04,01,21,12.90
2016,11,04,01,22,8.10
2016,11,04,01,23,4.80
2016,11,04,01,24,1.60
2016,11,04,01,25,1.60
2016,11,04,01,26,3.20
2016,11,04,01,27,4.80
2016,11,04,01,28,9.60
2016,11,04,01,29,6.40
2016,11,04,01,30,6.40
2016,11,04,01,31,4.80
2016,11,04,01,32,1.60
2016,11,04,01,33,4.80
2016,11,04,01,34,4.80
2016,11,04,01,36,3.20
2016,11,04,01,37,1.60
2016,11,04,01,39,3.20
2016,11,04,01,40,3.20
2016,11,04,01,41,1.60
2016,11,04,01,42,3.20
2016,11,04,01,43,1.60
2016,11,04,01,44,1.60
2016,11,04,01,45,1.60
2016,11,04,01,46,1.60
2016,11,04,01,47,1.60
2016,11,04,01,48,1.60
2016,11,04,01,49,3.20
2016,11,04,01,50,6.40
2016,11,04,01,51,4.80
2016,11,04,01,52,3.20
2016,11,04,01,53,4.80
2016,11,04,01,54,1.60
2016,11,04,01,55,1.60
2016,11,04,01,56,4.80
2016,11,04,01,57,3.20
2016,11,04,01,58,1.60
2016,11,04,01,59,1.60
2016,11,04,02,04,1.60
2016,11,04,02,05,1.60
2016,11,04,02,06,3.20
2016,11,04,02,07,3.20
2016,11,04,02,08,1.60
2016,11,04,02,09,3.20
2016,11,04,02,10,1.60
2016,11,04,02,16,1.60
2016,11,04,02,17,3.20
2016,11,04,02,18,3.20
2016,11,04,02,19,3.20
2016,11,04,02,21,3.20
2016,11,04,02,22,1.60
2016,11,04,02,23,3.20
2016,11,04,02,24,6.40
2016,11,04,02,25,6.40
2016,11,04,02,26,1.60
2016,11,04,02,27,1.60
2016,11,04,02,30,1.60
2016,11,04,02,31,1.60
2016,11,04,02,32,1.60
2016,11,04,02,33,6.40
2016,11,04,02,34,6.40
2016,11,04,02,35,4.80
2016,11,04,02,36,6.40
2016,11,04,02,37,1.60
2016,11,04,02,38,3.20
2016,11,04,02,39,4.80
2016,11,04,02,40,3.20
2016,11,04,02,41,1.60
2016,11,04,02,42,3.20
2016,11,04,02,43,8.10
2016,11,04,02,44,11.30
2016,11,04,02,45,4.80
2016,11,04,02,46,1.60
2016,11,04,02,47,3.20
2016,11,04,02,48,1.60
2016,11,04,02,49,3.20
2016,11,04,02,51,3.20
2016,11,04,02,52,8.10
2016,11,04,02,53,4.80
2016,11,04,02,55,3.20
2016,11,04,02,56,3.20
2016,11,04,02,57,3.20
2016,11,04,02,58,6.40
2016,11,04,02,59,4.80
2016,11,04,03,00,6.40
2016,11,04,03,01,9.60
2016,11,04,03,02,8.10
2016,11,04,03,03,6.40
2016,11,04,03,04,1.60
2016,11,04,03,06,1.60
2016,11,04,03,07,3.20
2016,11,04,03,08,8.10
2016,11,04,03,09,4.80
2016,11,04,03,10,4.80
2016,11,04,03,11,3.20
2016,11,04,03,12,1.60
2016,11,04,03,13,1.60
2016,11,04,03,15,1.60
2016,11,04,03,16,1.60
2016,11,04,03,17,3.20
2016,11,04,03,18,1.60
2016,11,04,03,19,4.80
2016,11,04,03,20,4.80
2016,11,04,03,21,3.20
2016,11,04,03,22,3.20
2016,11,04,03,23,6.40
2016,11,04,03,24,4.80
2016,11,04,03,25,6.40
2016,11,04,03,26,3.20
2016,11,04,03,27,4.80
2016,11,04,03,28,3.20
2016,11,04,03,29,1.60
2016,11,04,03,31,4.80
2016,11,04,03,32,4.80
2016,11,04,03,33,1.60
2016,11,04,03,34,3.20
2016,11,04,03,36,1.60
2016,11,04,03,37,1.60
2016,11,04,03,38,3.20
2016,11,04,03,39,4.80
2016,11,04,03,40,4.80
2016,11,04,03,41,3.20
2016,11,04,03,42,1.60
2016,11,04,03,43,4.80
2016,11,04,03,44,3.20
2016,11,04,03,45,3.20
2016,11,04,03,46,3.20
2016,11,04,03,50,4.80
2016,11,04,03,51,8.10
2016,11,04,03,52,4.80
2016,11,04,03,53,4.80
2016,11,04,03,54,4.80
2016,11,04,03,55,4.80
2016,11,04,03,56,6.40
2016,11,04,03,57,1.60
2016,11,04,03,58,1.60
2016,11,04,03,59,1.60
2016,11,04,04,00,3.20
2016,11,04,04,01,1.60
2016,11,04,04,02,1.60
2016,11,04,04,03,1.60
2016,11,04,04,05,1.60
2016,11,04,04,06,1.60
2016,11,04,04,07,4.80
2016,11,04,04,08,3.20
2016,11,04,04,11,1.60
2016,11,04,04,12,1.60
2016,11,04,04,13,3.20
2016,11,04,04,14,3.20
2016,11,04,04,15,3.20
2016,11,04,04,16,3.20
2016,11,04,04,17,3.20
2016,11,04,04,18,4.80
2016,11,04,04,19,3.20
2016,11,04,04,20,4.80
2016,11,04,04,21,6.40
2016,11,04,04,22,4.80
2016,11,04,04,23,3.20
2016,11,04,04,24,1.60
2016,11,04,04,26,3.20
2016,11,04,04,27,3.20
2016,11,04,04,28,1.60
2016,11,04,04,29,3.20
2016,11,04,04,30,4.80
2016,11,04,04,31,4.80
2016,11,04,04,32,3.20
2016,11,04,04,33,3.20
2016,11,04,04,34,3.20
2016,11,04,04,35,4.80
2016,11,04,04,36,3.20
2016,11,04,04,37,3.20
2016,11,04,04,38,4.80
2016,11,04,04,39,3.20
2016,11,04,04,40,3.20
2016,11,04,04,41,6.40
2016,11,04,04,42,6.40
2016,11,04,04,43,4.80
2016,11,04,04,44,3.20
2016,11,04,04,45,3.20
2016,11,04,04,46,4.80
2016,11,04,04,47,6.40
2016,11,04,04,48,8.10
2016,11,04,04,49,4.80
2016,11,04,04,50,3.20
2016,11,04,04,51,1.60
2016,11,04,04,52,4.80
2016,11,04,04,53,8.10
2016,11,04,04,54,8.10
2016,11,04,04,55,4.80
2016,11,04,04,56,3.20
2016,11,04,04,57,4.80
2016,11,04,04,58,8.10
2016,11,04,04,59,3.20
2016,11,04,05,00,3.20
2016,11,04,05,01,1.60
2016,11,04,05,02,3.20
2016,11,04,05,03,4.80
2016,11,04,05,04,4.80
2016,11,04,05,06,1.60
2016,11,04,05,07,1.60
2016,11,04,05,08,6.40
2016,11,04,05,09,4.80
2016,11,04,05,10,4.80
2016,11,04,05,11,6.40
2016,11,04,05,12,6.40
2016,11,04,05,13,11.30
2016,11,04,05,14,14.50
2016,11,04,05,15,9.60
2016,11,04,05,16,11.30
2016,11,04,05,17,9.60
2016,11,04,05,18,8.10
2016,11,04,05,19,6.40
2016,11,04,05,20,3.20
2016,11,04,05,21,4.80
2016,11,04,05,22,8.10
2016,11,04,05,23,3.20
2016,11,04,05,24,3.20
2016,11,04,05,25,4.80
2016,11,04,05,26,4.80
2016,11,04,05,27,3.20
2016,11,04,05,28,11.30
2016,11,04,05,29,12.90
2016,11,04,05,30,12.90
2016,11,04,05,31,16.10
2016,11,04,05,32,8.10
2016,11,04,05,33,3.20
2016,11,04,05,34,6.40
2016,11,04,05,35,11.30
2016,11,04,05,36,20.90
2016,11,04,05,37,11.30
2016,11,04,05,38,16.10
2016,11,04,05,39,11.30
2016,11,04,05,40,4.80
2016,11,04,05,41,4.80
2016,11,04,05,42,3.20
2016,11,04,05,43,6.40
2016,11,04,05,44,9.60
2016,11,04,05,45,4.80
2016,11,04,05,46,12.90
2016,11,04,05,47,27.40
2016,11,04,05,48,22.50
2016,11,04,05,49,19.30
2016,11,04,05,50,12.90
2016,11,04,05,51,12.90
2016,11,04,05,52,17.70
2016,11,04,05,53,25.70
2016,11,04,05,54,30.60
2016,11,04,05,55,25.70
2016,11,04,05,56,29.00
2016,11,04,05,57,25.70
2016,11,04,05,58,33.80
2016,11,04,05,59,25.70
2016,11,04,06,00,25.70
2016,11,04,06,01,27.40
2016,11,04,06,02,17.70
2016,11,04,06,03,32.20
2016,11,04,06,04,30.60
2016,11,04,06,05,20.90
2016,11,04,06,06,22.50
2016,11,04,06,07,19.30
2016,11,04,06,08,20.90
2016,11,04,06,09,22.50
2016,11,04,06,10,20.90
2016,11,04,06,11,25.70
2016,11,04,06,12,33.80
2016,11,04,06,13,27.40
2016,11,04,06,14,22.50
2016,11,04,06,15,32.20
2016,11,04,06,16,27.40
2016,11,04,06,17,19.30
2016,11,04,06,18,29.00
2016,11,04,06,19,37.00
2016,11,04,06,20,25.70
2016,11,04,06,21,24.20
2016,11,04,06,22,29.00
2016,11,04,06,23,27.40
2016,11,04,06,24,38.60
2016,11,04,06,25,35.40
2016,11,04,06,26,25.70
2016,11,04,06,27,29.00
2016,11,04,06,28,25.70
2016,11,04,06,29,38.60
2016,11,04,06,30,35.40
2016,11,04,06,31,33.80
2016,11,04,06,32,24.20
2016,11,04,06,33,35.40
2016,11,04,06,34,35.40
2016,11,04,06,35,20.90
2016,11,04,06,36,9.60
2016,11,04,06,37,12.90
2016,11,04,06,38,27.40
2016,11,04,06,39,33.80
2016,11,04,06,40,38.60
2016,11,04,06,41,32.20
2016,11,04,06,42,30.60
2016,11,04,06,43,17.70
2016,11,04,06,44,20.90
2016,11,04,06,45,37.00
2016,11,04,06,46,38.60
2016,11,04,06,47,22.50
2016,11,04,06,48,24.20
2016,11,04,06,49,19.30
2016,11,04,06,50,24.20
2016,11,04,06,51,29.00
2016,11,04,06,52,27.40
2016,11,04,06,53,27.40
2016,11,04,06,54,27.40
2016,11,04,06,55,32.20
2016,11,04,06,56,30.60
2016,11,04,06,57,35.40
2016,11,04,06,58,27.40
2016,11,04,06,59,24.20
2016,11,04,07,00,27.40
2016,11,04,07,01,25.70
2016,11,04,07,02,22.50
2016,11,04,07,03,30.60
2016,11,04,07,04,20.90
2016,11,04,07,05,20.90
2016,11,04,07,06,25.70
2016,11,04,07,07,24.20
2016,11,04,07,08,24.20
2016,11,04,07,09,24.20
2016,11,04,07,10,14.50
2016,11,04,07,11,20.90
2016,11,04,07,12,25.70
2016,11,04,07,13,25.70
2016,11,04,07,14,20.90
2016,11,04,07,15,16.10
2016,11,04,07,16,24.20
2016,11,04,07,17,22.50
2016,11,04,07,18,12.90
2016,11,04,07,19,14.50
2016,11,04,07,20,16.10
2016,11,04,07,21,14.50
2016,11,04,07,22,20.90
2016,11,04,07,23,14.50
2016,11,04,07,24,11.30
2016,11,04,07,25,12.90
2016,11,04,07,26,4.80
2016,11,04,07,27,8.10
2016,11,04,07,28,11.30
2016,11,04,07,29,12.90
2016,11,04,07,30,11.30
2016,11,04,07,31,11.30
2016,11,04,07,32,11.30
2016,11,04,07,33,17.70
2016,11,04,07,34,11.30
2016,11,04,07,35,8.10
2016,11,04,07,36,9.60
2016,11,04,07,37,9.60
2016,11,04,07,38,6.40
2016,11,04,07,39,9.60
2016,11,04,07,40,11.30
2016,11,04,07,41,9.60
2016,11,04,07,42,8.10
2016,11,04,07,43,12.90
2016,11,04,07,44,16.10
2016,11,04,07,45,17.70
2016,11,04,07,46,19.30
2016,11,04,07,47,17.70
2016,11,04,07,48,16.10
2016,11,04,07,49,11.30
2016,11,04,07,50,11.30
2016,11,04,07,51,6.40
2016,11,04,07,52,24.20
2016,11,04,07,53,22.50
2016,11,04,07,54,29.00
2016,11,04,07,55,25.70
2016,11,04,07,56,32.20
2016,11,04,07,57,27.40
2016,11,04,07,58,12.90
2016,11,04,07,59,19.30
2016,11,04,08,00,22.50
2016,11,04,08,01,11.30
2016,11,04,08,02,11.30
2016,11,04,08,03,14.50
2016,11,04,08,04,30.60
2016,11,04,08,05,30.60
2016,11,04,08,06,38.60
2016,11,04,08,07,20.90
2016,11,04,08,08,25.70
2016,11,04,08,09,24.20
2016,11,04,08,10,22.50
2016,11,04,08,11,29.00
2016,11,04,08,12,20.90
2016,11,04,08,13,27.40
2016,11,04,08,14,29.00
2016,11,04,08,15,22.50
2016,11,04,08,16,12.90
2016,11,04,08,17,17.70
2016,11,04,08,18,16.10
2016,11,04,08,19,17.70
2016,11,04,08,20,22.50
2016,11,04,08,21,22.50
2016,11,04,08,22,27.40
2016,11,04,08,23,25.70
2016,11,04,08,24,22.50
2016,11,04,08,25,17.70
2016,11,04,08,26,16.10
2016,11,04,08,27,11.30
2016,11,04,08,28,17.70
2016,11,04,08,29,22.50
2016,11,04,08,30,6.40
2016,11,04,08,31,11.30
2016,11,04,08,32,14.50
2016,11,04,08,33,25.70
2016,11,04,08,34,27.40
2016,11,04,08,35,29.00
2016,11,04,08,36,25.70
2016,11,04,08,37,19.30
2016,11,04,08,38,24.20
2016,11,04,08,39,16.10
2016,11,04,08,40,27.40
2016,11,04,08,41,33.80
2016,11,04,08,42,16.10
2016,11,04,08,43,27.40
2016,11,04,08,44,20.90
2016,11,04,08,45,25.70
2016,11,04,08,46,17.70
2016,11,04,08,47,24.20
2016,11,04,08,48,27.40
2016,11,04,08,49,16.10
2016,11,04,08,50,14.50
2016,11,04,08,51,17.70
2016,11,04,08,52,20.90
2016,11,04,08,53,19.30
2016,11,04,08,54,16.10
2016,11,04,08,55,19.30
2016,11,04,08,56,19.30
2016,11,04,08,57,19.30
2016,11,04,08,58,19.30
2016,11,04,08,59,9.60
2016,11,04,09,00,6.40
2016,11,04,09,01,17.70
2016,11,04,09,02,19.30
2016,11,04,09,03,14.50
2016,11,04,09,04,11.30
2016,11,04,09,05,8.10
2016,11,04,09,06,8.10
2016,11,04,09,07,14.50
2016,11,04,09,08,12.90
2016,11,04,09,09,9.60
2016,11,04,09,10,6.40
2016,11,04,09,11,11.30
2016,11,04,09,12,11.30
2016,11,04,09,13,24.20
2016,11,04,09,14,24.20
2016,11,04,09,15,22.50
2016,11,04,09,16,30.60
2016,11,04,09,17,22.50
2016,11,04,09,18,22.50
2016,11,04,09,19,29.00
2016,11,04,09,20,19.30
2016,11,04,09,21,17.70
2016,11,04,09,22,24.20
2016,11,04,09,23,14.50
2016,11,04,09,24,22.50
2016,11,04,09,25,24.20
2016,11,04,09,26,24.20
2016,11,04,09,27,16.10
2016,11,04,09,28,12.90
2016,11,04,09,29,24.20
2016,11,04,09,30,30.60
2016,11,04,09,31,33.80
2016,11,04,09,32,22.50
2016,11,04,09,33,22.50
2016,11,04,09,34,33.80
2016,11,04,09,35,17.70
2016,11,04,09,36,22.50
2016,11,04,09,37,30.60
2016,11,04,09,38,32.20
2016,11,04,09,39,22.50
2016,11,04,09,40,20.90
2016,11,04,09,41,24.20
2016,11,04,09,42,24.20
2016,11,04,09,43,32.20
2016,11,04,09,44,20.90
2016,11,04,09,45,30.60
2016,11,04,09,46,19.30
2016,11,04,09,47,11.30
2016,11,04,09,48,16.10
2016,11,04,09,49,12.90
2016,11,04,09,50,16.10
2016,11,04,09,51,19.30
2016,11,04,09,52,12.90
2016,11,04,09,53,16.10
2016,11,04,09,54,14.50
2016,11,04,09,55,16.10
2016,11,04,09,56,14.50
2016,11,04,09,57,25.70
2016,11,04,09,58,17.70
2016,11,04,09,59,19.30
2016,11,04,10,00,14.50
2016,11,04,10,01,11.30
2016,11,04,10,02,9.60
2016,11,04,10,03,12.90
2016,11,04,10,04,12.90
2016,11,04,10,05,12.90
2016,11,04,10,06,11.30
2016,11,04,10,07,16.10
2016,11,04,10,08,14.50
2016,11,04,10,09,11.30
2016,11,04,10,10,12.90
2016,11,04,10,11,6.40
2016,11,04,10,12,4.80
2016,11,04,10,13,6.40
2016,11,04,10,14,6.40
2016,11,04,10,15,12.90
2016,11,04,10,16,16.10
2016,11,04,10,17,24.20
2016,11,04,10,18,16.10
2016,11,04,10,19,27.40
2016,11,04,10,20,17.70
2016,11,04,10,21,22.50
2016,11,04,10,22,27.40
2016,11,04,10,23,25.70
2016,11,04,10,24,20.90
2016,11,04,10,25,12.90
2016,11,04,10,26,17.70
2016,11,04,10,27,9.60
2016,11,04,10,28,6.40
2016,11,04,10,29,8.10
2016,11,04,10,30,8.10
2016,11,04,10,31,9.60
2016,11,04,10,32,14.50
2016,11,04,10,33,17.70
2016,11,04,10,34,29.00
2016,11,04,10,35,12.90
2016,11,04,10,36,8.10
2016,11,04,10,37,9.60
2016,11,04,10,38,19.30
2016,11,04,10,39,11.30
2016,11,04,10,40,17.70
2016,11,04,10,41,30.60
2016,11,04,10,42,30.60
2016,11,04,10,43,30.60
2016,11,04,10,44,35.40
2016,11,04,10,45,30.60
2016,11,04,10,46,19.30
2016,11,04,10,47,25.70
2016,11,04,10,48,25.70
2016,11,04,10,49,32.20
2016,11,04,10,50,30.60
2016,11,04,10,51,35.40
2016,11,04,10,52,22.50
2016,11,04,10,53,32.20
2016,11,04,10,54,17.70
2016,11,04,10,55,32.20
2016,11,04,10,56,32.20
2016,11,04,10,57,19.30
2016,11,04,10,58,32.20
2016,11,04,10,59,24.20
2016,11,04,11,00,22.50
2016,11,04,11,01,27.40
2016,11,04,11,02,19.30
2016,11,04,11,03,30.60
2016,11,04,11,04,14.50
2016,11,04,11,05,30.60
2016,11,04,11,06,35.40
2016,11,04,11,07,30.60
2016,11,04,11,08,22.50
2016,11,04,11,09,24.20
2016,11,04,11,10,29.00
2016,11,04,11,11,43.50
2016,11,04,11,12,29.00
2016,11,04,11,13,33.80
2016,11,04,11,14,27.40
2016,11,04,11,15,40.20
2016,11,04,11,16,22.50
2016,11,04,11,17,19.30
2016,11,04,11,18,9.60
2016,11,04,11,19,17.70
2016,11,04,11,20,14.50
2016,11,04,11,21,19.30
2016,11,04,11,22,24.20
2016,11,04,11,23,37.00
2016,11,04,11,24,30.60
2016,11,04,11,25,22.50
2016,11,04,11,26,24.20
2016,11,04,11,27,24.20
2016,11,04,11,28,20.90
2016,11,04,11,29,20.90
2016,11,04,11,30,19.30
2016,11,04,11,31,25.70
2016,11,04,11,32,16.10
2016,11,04,11,33,12.90
2016,11,04,11,34,16.10
2016,11,04,11,35,27.40
2016,11,04,11,36,24.20
2016,11,04,11,37,27.40
2016,11,04,11,38,29.00
2016,11,04,11,39,16.10
2016,11,04,11,40,17.70
2016,11,04,11,41,20.90
2016,11,04,11,42,19.30
2016,11,04,11,43,16.10
2016,11,04,11,44,20.90
2016,11,04,11,45,11.30
2016,11,04,11,46,17.70
2016,11,04,11,47,16.10
2016,11,04,11,48,22.50
2016,11,04,11,49,22.50
2016,11,04,11,50,12.90
2016,11,04,11,51,16.10
2016,11,04,11,52,14.50
2016,11,04,11,53,17.70
2016,11,04,11,54,16.10
2016,11,04,11,55,17.70
2016,11,04,11,56,19.30
2016,11,04,11,57,16.10
2016,11,04,11,58,19.30
2016,11,04,11,59,12.90
2016,11,04,12,00,19.30
2016,11,04,12,01,16.10
2016,11,04,12,02,20.90
2016,11,04,12,03,19.30
2016,11,04,12,04,16.10
2016,11,04,12,05,32.20
2016,11,04,12,06,25.70
2016,11,04,12,07,33.80
2016,11,04,12,08,35.40
2016,11,04,12,09,35.40
2016,11,04,12,10,27.40
2016,11,04,12,11,29.00
2016,11,04,12,12,27.40
2016,11,04,12,13,24.20
2016,11,04,12,14,24.20
2016,11,04,12,15,20.90
2016,11,04,12,16,25.70
2016,11,04,12,17,16.10
2016,11,04,12,18,35.40
2016,11,04,12,19,17.70
2016,11,04,12,20,19.30
2016,11,04,12,21,17.70
2016,11,04,12,22,14.50
2016,11,04,12,23,12.90
2016,11,04,12,24,8.10
2016,11,04,12,25,3.20
2016,11,04,12,26,9.60
2016,11,04,12,27,8.10
2016,11,04,12,28,16.10
2016,11,04,12,29,19.30
2016,11,04,12,30,20.90
2016,11,04,12,31,30.60
2016,11,04,12,32,32.20
2016,11,04,12,33,35.40
2016,11,04,12,34,25.70
2016,11,04,12,35,27.40
2016,11,04,12,36,25.70
2016,11,04,12,37,24.20
2016,11,04,12,38,30.60
2016,11,04,12,39,19.30
2016,11,04,12,40,24.20
2016,11,04,12,41,20.90
2016,11,04,12,42,30.60
2016,11,04,12,43,30.60
2016,11,04,12,44,38.60
2016,11,04,12,45,30.60
2016,11,04,12,46,32.20
2016,11,04,12,47,35.40
2016,11,04,12,48,29.00
2016,11,04,12,49,29.00
2016,11,04,12,50,35.40
2016,11,04,12,51,40.20
2016,11,04,12,52,37.00
2016,11,04,12,53,33.80
2016,11,04,12,54,38.60
2016,11,04,12,55,25.70
2016,11,04,12,56,29.00
2016,11,04,12,57,33.80
2016,11,04,12,58,35.40
2016,11,04,12,59,37.00
2016,11,04,13,00,32.20
2016,11,04,13,01,30.60
2016,11,04,13,02,30.60
2016,11,04,13,03,32.20
2016,11,04,13,04,33.80
2016,11,04,13,05,27.40
2016,11,04,13,06,30.60
2016,11,04,13,07,38.60
2016,11,04,13,08,25.70
2016,11,04,13,09,20.90
2016,11,04,13,10,25.70
2016,11,04,13,11,19.30
2016,11,04,13,12,22.50
2016,11,04,13,13,17.70
2016,11,04,13,14,20.90
2016,11,04,13,15,19.30
2016,11,04,13,16,25.70
2016,11,04,13,17,19.30
2016,11,04,13,18,19.30
2016,11,04,13,19,22.50
2016,11,04,13,20,19.30
2016,11,04,13,21,11.30
2016,11,04,13,22,14.50
2016,11,04,13,23,20.90
2016,11,04,13,24,25.70
2016,11,04,13,25,32.20
2016,11,04,13,26,33.80
2016,11,04,13,27,37.00
2016,11,04,13,28,33.80
2016,11,04,13,29,30.60
2016,11,04,13,30,19.30
2016,11,04,13,31,17.70
2016,11,04,13,32,14.50
2016,11,04,13,33,27.40
2016,11,04,13,34,16.10
2016,11,04,13,35,22.50
2016,11,04,13,36,16.10
2016,11,04,13,37,29.00
2016,11,04,13,38,24.20
2016,11,04,13,39,17.70
2016,11,04,13,40,16.10
2016,11,04,13,41,17.70
2016,11,04,13,42,12.90
2016,11,04,13,43,12.90
2016,11,04,13,44,29.00
2016,11,04,13,45,17.70
2016,11,04,13,46,16.10
2016,11,04,13,47,19.30
2016,11,04,13,48,17.70
2016,11,04,13,49,11.30
2016,11,04,13,50,9.60
2016,11,04,13,51,16.10
2016,11,04,13,52,22.50
2016,11,04,13,53,22.50
2016,11,04,13,54,19.30
2016,11,04,13,55,12.90
2016,11,04,13,56,8.10
2016,11,04,13,57,16.10
2016,11,04,13,58,9.60
2016,11,04,13,59,4.80
2016,11,04,14,00,12.90
2016,11,04,14,01,12.90
2016,11,04,14,02,17.70
2016,11,04,14,03,17.70
2016,11,04,14,04,14.50
2016,11,04,14,05,17.70
2016,11,04,14,06,11.30
2016,11,04,14,07,4.80
2016,11,04,14,08,1.60
2016,11,04,14,09,1.60
2016,11,04,14,10,1.60
2016,11,04,14,11,1.60
2016,11,04,14,12,4.80
2016,11,04,14,13,11.30
2016,11,04,14,14,12.90
2016,11,04,14,15,8.10
2016,11,04,14,16,8.10
2016,11,04,14,17,4.80
2016,11,04,14,18,12.90
2016,11,04,14,19,32.20
2016,11,04,14,20,20.90
2016,11,04,14,21,25.70
2016,11,04,14,22,20.90
2016,11,04,14,23,19.30
2016,11,04,14,24,25.70
2016,11,04,14,25,22.50
2016,11,04,14,26,27.40
2016,11,04,14,27,27.40
2016,11,04,14,28,24.20
2016,11,04,14,29,20.90
2016,11,04,14,30,12.90
2016,11,04,14,31,17.70
2016,11,04,14,32,35.40
2016,11,04,14,33,19.30
2016,11,04,14,34,11.30
2016,11,04,14,35,19.30
2016,11,04,14,36,29.00
2016,11,04,14,37,25.70
2016,11,04,14,38,19.30
2016,11,04,14,39,29.00
2016,11,04,14,40,25.70
2016,11,04,14,41,24.20
2016,11,04,14,42,30.60
2016,11,04,14,43,20.90
2016,11,04,14,44,22.50
2016,11,04,14,45,24.20
2016,11,04,14,46,9.60
2016,11,04,14,47,4.80
2016,11,04,14,48,4.80
2016,11,04,14,49,9.60
2016,11,04,14,50,11.30
2016,11,04,14,51,11.30
2016,11,04,14,52,9.60
2016,11,04,14,53,16.10
2016,11,04,14,54,19.30
2016,11,04,14,55,19.30
2016,11,04,14,56,16.10
2016,11,04,14,57,12.90
2016,11,04,14,58,9.60
2016,11,04,14,59,12.90
2016,11,04,15,00,6.40
2016,11,04,15,01,3.20
2016,11,04,15,02,4.80
2016,11,04,15,03,6.40
2016,11,04,15,04,4.80
2016,11,04,15,05,3.20
2016,11,04,15,06,3.20
2016,11,04,15,07,1.60
2016,11,04,15,08,3.20
2016,11,04,15,09,11.30
2016,11,04,15,10,8.10
2016,11,04,15,11,8.10
2016,11,04,15,12,6.40
2016,11,04,15,13,6.40
2016,11,04,15,14,6.40
2016,11,04,15,15,1.60
2016,11,04,15,16,1.60
2016,11,04,15,17,3.20
2016,11,04,15,18,3.20
2016,11,04,15,19,9.60
2016,11,04,15,20,9.60
2016,11,04,15,21,11.30
2016,11,04,15,22,8.10
2016,11,04,15,23,1.60
2016,11,04,15,24,1.60
2016,11,04,15,25,3.20
2016,11,04,15,26,3.20
2016,11,04,15,27,3.20
2016,11,04,15,28,1.60
2016,11,04,15,29,4.80
2016,11,04,15,30,8.10
2016,11,04,15,31,4.80
2016,11,04,15,32,4.80
2016,11,04,15,33,4.80
2016,11,04,15,34,8.10
2016,11,04,15,35,6.40
2016,11,04,15,36,4.80
2016,11,04,15,37,3.20
2016,11,04,15,38,4.80
2016,11,04,15,39,6.40
2016,11,04,15,40,4.80
2016,11,04,15,41,3.20
2016,11,04,15,42,3.20
2016,11,04,15,43,3.20
2016,11,04,15,46,1.60
2016,11,04,15,52,1.60
2016,11,04,15,53,1.60
2016,11,04,15,56,3.20
2016,11,04,15,57,1.60
2016,11,04,15,58,1.60
2016,11,04,15,59,3.20
2016,11,04,16,00,3.20
2016,11,04,16,01,4.80
2016,11,04,16,02,4.80
2016,11,04,16,03,4.80
2016,11,04,16,04,4.80
2016,11,04,16,05,4.80
2016,11,04,16,06,1.60
2016,11,04,16,09,1.60
2016,11,04,16,10,1.60
2016,11,04,16,11,1.60
2016,11,04,16,13,1.60
2016,11,04,16,14,1.60
2016,11,04,16,15,1.60
2016,11,04,16,16,3.20
2016,11,04,16,17,3.20
2016,11,04,16,21,3.20
2016,11,04,16,22,1.60
2016,11,04,16,23,1.60
2016,11,04,16,29,1.60
2016,11,04,16,30,1.60
2016,11,04,16,31,3.20
2016,11,04,16,32,3.20
2016,11,04,16,33,3.20
2016,11,04,16,34,3.20
2016,11,04,16,35,1.60
2016,11,04,16,36,3.20
2016,11,04,16,37,1.60
2016,11,04,16,38,11.30
2016,11,04,16,39,9.60
2016,11,04,16,40,8.10
2016,11,04,16,41,11.30
2016,11,04,16,42,4.80
2016,11,04,16,43,6.40
2016,11,04,16,44,6.40
2016,11,04,16,45,4.80
2016,11,04,16,46,4.80
2016,11,04,16,47,4.80
2016,11,04,16,48,1.60
2016,11,04,16,49,4.80
2016,11,04,16,50,1.60
2016,11,04,16,51,1.60
2016,11,04,16,52,1.60
2016,11,04,16,53,1.60
2016,11,04,16,54,1.60
2016,11,04,16,55,3.20
2016,11,04,16,56,3.20
2016,11,04,16,57,4.80
2016,11,04,16,58,1.60
2016,11,04,16,59,3.20
2016,11,04,17,00,3.20
2016,11,04,17,01,1.60
2016,11,04,17,02,3.20
2016,11,04,17,03,3.20
2016,11,04,17,04,3.20
2016,11,04,17,05,6.40
2016,11,04,17,06,11.30
2016,11,04,17,07,14.50
2016,11,04,17,08,16.10
2016,11,04,17,09,6.40
2016,11,04,17,10,12.90
2016,11,04,17,11,14.50
2016,11,04,17,12,11.30
2016,11,04,17,13,8.10
2016,11,04,17,14,11.30
2016,11,04,17,15,9.60
2016,11,04,17,16,6.40
2016,11,04,17,17,4.80
2016,11,04,17,18,3.20
2016,11,04,17,19,1.60
2016,11,04,17,20,1.60
2016,11,04,17,21,3.20
2016,11,04,17,22,1.60
2016,11,04,17,26,1.60
2016,11,04,17,27,1.60
2016,11,04,17,28,1.60
2016,11,04,17,29,1.60
2016,11,04,17,36,1.60
2016,11,04,17,37,1.60
2016,11,04,17,40,1.60
2016,11,04,17,41,1.60
2016,11,04,17,43,1.60
2016,11,04,17,44,1.60
2016,11,04,17,45,1.60
2016,11,04,17,48,1.60
2016,11,04,17,49,3.20
2016,11,04,17,50,3.20
2016,11,04,17,51,3.20
2016,11,04,17,52,3.20
2016,11,04,17,53,6.40
2016,11,04,17,54,6.40
2016,11,04,17,55,4.80
2016,11,04,17,56,4.80
2016,11,04,17,57,4.80
2016,11,04,17,58,4.80
2016,11,04,17,59,3.20
2016,11,04,18,00,4.80
2016,11,04,18,01,11.30
2016,11,04,18,02,8.10
2016,11,04,18,03,8.10
2016,11,04,18,04,12.90
2016,11,04,18,05,11.30
2016,11,04,18,06,12.90
2016,11,04,18,07,17.70
2016,11,04,18,08,14.50
2016,11,04,18,09,12.90
2016,11,04,18,10,12.90
2016,11,04,18,11,4.80
2016,11,04,18,12,4.80
2016,11,04,18,13,9.60
2016,11,04,18,14,14.50
2016,11,04,18,15,11.30
2016,11,04,18,16,8.10
2016,11,04,18,17,9.60
2016,11,04,18,18,8.10
2016,11,04,18,19,14.50
2016,11,04,18,20,11.30
2016,11,04,18,21,9.60
2016,11,04,18,22,4.80
2016,11,04,18,23,6.40
2016,11,04,18,24,4.80
2016,11,04,18,25,4.80
2016,11,04,18,26,6.40
2016,11,04,18,27,6.40
2016,11,04,18,28,3.20
2016,11,04,18,29,8.10
2016,11,04,18,30,8.10
2016,11,04,18,31,6.40
2016,11,04,18,32,4.80
2016,11,04,18,33,4.80
2016,11,04,18,34,3.20
2016,11,04,18,35,3.20
2016,11,04,18,36,4.80
2016,11,04,18,37,3.20
2016,11,04,18,38,6.40
2016,11,04,18,39,6.40
2016,11,04,18,40,9.60
2016,11,04,18,41,14.50
2016,11,04,18,42,16.10
2016,11,04,18,43,17.70
2016,11,04,18,44,16.10
2016,11,04,18,45,14.50
2016,11,04,18,46,12.90
2016,11,04,18,47,9.60
2016,11,04,18,48,11.30